Regional Weather Roundup
Issued by NWS

Home | Current Version | Previous Version | Graphics & Text | Print | Product List | Glossary Off
Versions: 1 2 3 4 5 6 7 8 9 10 11 12 13 14 15 16 17 18 19 20 21 22 23 24 25 26 27 28 29 30 31 32 33 34 35 36 37 38 39 40 41 42 43 44 45 46 47 48 49 50

981
ASUS43 KMKX 280711
RWRWI

WISCONSIN REGIONAL WEATHER ROUNDUP
NATIONAL WEATHER SERVICE MILWAUKEE/SULLIVAN WI
200 AM CDT FRI JUL 28 2017

NOTE: "FAIR" INDICATES FEW OR NO CLOUDS BELOW 12,000 FEET WITH NO
SIGNIFICANT WEATHER AND/OR OBSTRUCTIONS TO VISIBILITY.

WIZ001-002-006>008-014>016-023>028-280800-
NORTHWEST WISCONSIN

CITY           SKY/WX    TMP DP  RH WIND       PRES   REMARKS
SUPERIOR ARPT  NOT AVBL
ASHLAND        FOG       55  54  96 W3        30.10R VSB 1/2
HAYWARD        CLEAR     56  53  90 N3        30.10R
SIREN          CLEAR     57  55  92 CALM      30.08S
CUMBERLAND     CLEAR     59  55  88 CALM      30.08S
RICE LAKE      CLEAR     61  58  89 CALM      30.09R
CHETEK         CLEAR     63  59  86 CALM      30.07S
LADYSMITH      CLEAR     62  58  88 NE3       30.09S
EAU CLAIRE     CLEAR     64  60  87 NE5       30.04R
MENOMONIE      CLEAR     64  60  86 NW3       30.05S
NEW RICHMOND   CLEAR     62  60  94 CALM      30.07R
OSCEOLA        CLEAR     61  61 100 CALM      30.10R
$$

WIZ003>005-009-010-017-018-280800-
NORTH CENTRAL WISCONSIN

CITY           SKY/WX    TMP DP  RH WIND       PRES   REMARKS
MANITOWISH WTR CLEAR     52  52 100 CALM      30.11S
ARBOR VITAE    CLEAR     56  54  95 CALM      30.11R
WOODRUFF       CLEAR     56  54  95 CALM      30.11R
RHINELANDER    CLEAR     51  51 100 NW3       30.10S FOG
EAGLE RIVER    CLEAR     50  50 100 CALM      30.10S
LAND O LAKES   CLEAR     48  48 100 CALM      30.12S FOG
PHILLIPS       CLEAR     55  55 100 CALM      30.09S
TOMAHAWK         N/A     51  49  95 CALM      30.11R
MEDFORD        CLEAR     57  56  95 E6        30.08S
MERRILL        CLEAR     55  55 100 NE3       30.09S
$$

WIZ029-030-035-036-043>047-280800-
CENTRAL WISCONSIN

CITY           SKY/WX    TMP DP  RH WIND       PRES   REMARKS
WAUSAU         CLEAR     62  60  93 CALM      30.06S
MOSINEE        PTCLDY    61  59  94 NE5       30.08S
MARSHFIELD     PTCLDY    63  58  83 E3        30.06S
STEVENS POINT  MOCLDY    60  59  96 NE6       30.07R
WAUPACA        CLOUDY    65  62  91 N3        30.05R
WAUTOMA        CLOUDY    65  60  84 CALM      30.05R
WISC RAPIDS    MOCLDY    66  57  72 E6        30.07R
CAMP DOUGLAS   CLOUDY    65  64  96 E5        30.05R
$$

WIZ011>013-019>022-031-037>040-048>050-280800-
NORTHEAST WISCONSIN

CITY           SKY/WX    TMP DP  RH WIND       PRES   REMARKS
ANTIGO         CLEAR     55  54  97 CALM      30.09F
SHAWANO        CLEAR     65  55  71 NE7       30.06F
OCONTO         CLEAR     57  52  82 CALM      30.05F
STURGEON BAY     N/A     60  55  83 N6        30.05S
GREEN BAY      CLOUDY    62  57  83 N10       30.05R
MANITOWOC      CLEAR     60  55  83 N7        30.03S
APPLETON       CLOUDY    64  52  63 N12       30.03S
CLINTONVILLE   PTCLDY   N/A N/A N/A N3        30.06S
OSHKOSH        CLOUDY    69  55  60 NE12      30.03S
$$

WIZ032>034-041-042-053>061-280800-
SOUTHWEST WISCONSIN

CITY           SKY/WX    TMP DP  RH WIND       PRES   REMARKS
LA CROSSE      CLEAR     69  66  90 SE3       30.01S
SPARTA         MOCLDY    60  60 100 CALM      30.05R
VIROQUA        CLEAR     66  64  91 S5        30.04S
BOSCOBEL       PTCLDY    63  62  97 CALM      30.02S
PRAIRIE DU CHI PTCLDY    67  65  93 CALM      30.01F
PLATTEVILLE    CLEAR     65  63  93 E6        30.02F
$$

WIZ056-057-062-063-064-067-068-280800-
SOUTH CENTRAL WISCONSIN

CITY           SKY/WX    TMP DP  RH WIND       PRES   REMARKS
REEDSBURG      CLOUDY    62  62 100 CALM      30.04R
BARABOO/DELLS  MOCLDY    62  60  93 CALM      30.04S
LONE ROCK      PTCLDY    62  62 100 CALM      30.02R
MINERAL POINT  CLEAR     64  61  88 CALM      30.04R
MADISON        CLEAR     62  57  83 N5        30.02R
MIDDLETON      CLEAR     60  60 100 CALM      30.04R
WATERTOWN      CLEAR     61  57  87 N5        30.01S
MONROE         CLEAR     63  54  72 N7        30.01S
JANESVILLE     CLEAR     64  55  72 NE3       29.99S
$$

WIZ051-052-058>065-066-070>072-280800-
SOUTHEAST WISCONSIN

CITY           SKY/WX    TMP DP  RH WIND       PRES   REMARKS
MILWAUKEE      NOT AVBL
WAUKESHA       CLEAR     61  54  77 N5        30.02R
MILWAUKEE/TIMM CLEAR     63  54  72 N6        30.01S
RACINE         MOCLDY    68  64  87 N14       30.00S
KENOSHA        PTCLDY    67  61  81 N8        29.98S
FOND DU LAC    MOCLDY    66  53  63 NE8       30.03R
SHEBOYGAN      CLOUDY    62  59  90 N3        30.01S
WEST BEND      CLEAR     61  57  88 N5        30.02S
JUNEAU         PTCLDY    60  56  85 N3        30.04R
$$

LSZ147-162-280800-
LAKE SUPERIOR

STATION/POSITION TIME  TEMP    WIND        PRES    WAVE
                       AIR SEA DIR/SP/G            HT/PER
                 (UTC) (F)     (DEG/KT/KT) (MB)    (FT/S)
W MID LAKE BUOY  0650   57 54  360/  4/  6 1018.9R   0
DEVILS ISLAND    0700   63     330/  3/  3 1019.1R
SAXON HARBOR     0640   59     210/  2/  5 1018.3S
$$

LMZ867-665-643>646-280800-
LAKE MICHIGAN

STATION/POSITION TIME  TEMP    WIND        PRES    WAVE
                       AIR SEA DIR/SP/G            HT/PER
                 (UTC) (F)     (DEG/KT/KT) (MB)    (FT/S)
CHAMBERS ISLAND  0640   65     340/ 13/ 17 1016.6S
S GREEN BAY BUOY 0700   67 72   10/ 14/ 17 1017.0
N MID LAKE BUOY  0650   64 66   30/  8/ 10 1017.1F   2/ 4
NORTHPORT PIER   0640   65     350/ 11/ 13 1016.9S
KEWAUNEE LAKESHO 0648   62     330/  5/  8 1016.0S
SHEBOYGAN LAKESH 0700   68      20/ 16/ 18 1015.7R
PORT WASHINGTON  0630   66     360/  4/ 10 1016.9S
ATWATER BUOY     0639   69 69   20/ 14/ 19 1015.7S
MILWAUKEE LAKESH 0650   68      20/ 13/ 16   N/A
S MID LAKE BUOY  0650   71 71   30/ 14/ 16 1014.0S   4/ 6
KENOSHA   LAKESH 0700   70      10/ 19/ 23 1014.6
$$

TC  - TEMPERATURE IN CELSIUS
VSB - VISIBILITY IN STATUTE MILES
WCI - WIND CHILL INDEX
HX  - HEAT INDEX





USA.gov is the U.S. government's official web portal to all federal, state and local government web resources and services.